Location: Huntsville
(41.2590°N, 111.7678°W)
Time: 08:18:45
(UTC+00:00)

Envisat - Pass Details

Date: 08 December 2021
Orbit: 764 x 766 km, 98.2° (Epoch: 18 January)

Event Time Altitude Azimuth Distance (km) Brightness Sun altitude
Rises 11:25:35 0° 27° (NNE) 3,240 6.6 -35.8°
Reaches altitude 10° 11:28:24 10° 43° (NE) 2,308 5.9 -35.2°
Maximum altitude 11:32:19 22° 93° (E) 1,622 5.3 -34.5°
Drops below altitude 10° 11:36:12 10° 144° (SE) 2,294 5.8 -33.8°
Sets 11:38:59 0° 159° (SSE) 3,215 6.5 -33.3°
